Date,TemperatureHighF,TemperatureAvgF,TemperatureLowF,DewpointHighF,DewpointAvgF,DewpointLowF,HumidityHigh,HumidityAvg,HumidityLow,PressureMaxIn,PressureMinIn,WindSpeedMaxMPH,WindSpeedAvgMPH,GustSpeedMaxMPH,PrecipitationSumIn
2014-2-2,11,0,-11,2,-8,-17,85,72,53,30.20,30.05,4,0,9,0.00
2014-2-3,21,5,-8,8,-1,-13,87,77,58,30.24,30.11,6,1,11,0.00
2014-2-4,15,2,-12,6,-4,-17,88,75,61,30.35,30.23,2,0,5,0.00
2014-2-5,6,2,-6,0,-4,-11,80,76,70,30.36,30.23,5,1,11,0.00
2014-2-6,3,-5,-13,-7,-11,-17,92,75,61,30.32,30.14,9,2,20,0.00
2014-2-7,13,1,-9,-3,-7,-13,82,68,47,30.14,30.06,11,3,21,0.00
2014-2-8,16,5,-7,6,-1,-11,86,78,63,30.10,29.99,1,0,5,0.00
2014-2-9,6,2,-8,3,-5,-14,86,74,60,30.24,30.02,7,1,14,0.00
2014-2-10,5,-6,-16,-6,-14,-22,79,71,58,30.39,30.24,5,1,8,0.00
2014-2-11,14,-3,-25,-1,-11,-30,89,66,50,30.39,30.06,7,2,16,0.00
2014-2-12,30,14,7,15,7,-2,86,75,55,30.07,29.74,4,0,13,0.05
2014-2-13,28,17,10,22,13,5,88,83,76,29.75,29.28,12,3,23,0.00
2014-2-14,14,7,0,5,1,-6,85,74,63,29.91,29.53,7,2,12,0.00
2014-2-15,18,7,-8,13,2,-12,89,79,56,29.92,29.74,8,1,15,0.00
2014-2-16,30,15,3,12,8,-1,89,73,44,30.11,29.87,6,1,14,0.05
2014-2-17,26,20,15,22,17,8,91,86,70,30.00,29.55,6,2,14,0.00
2014-2-18,42,28,15,28,22,13,100,79,56,29.68,29.41,6,1,10,0.14
2014-2-19,50,34,20,32,26,16,90,74,50,29.70,29.55,6,1,11,0.01
2014-2-20,38,33,30,33,29,23,100,84,74,29.62,28.89,6,1,15,0.04
2014-2-21,32,14,9,30,12,6,95,88,84,29.59,28.89,15,8,25,0.00
2014-2-22,16,10,5,10,5,1,84,80,73,29.96,29.59,12,4,20,0.00
2014-2-23,16,8,-1,7,2,-5,83,76,67,30.09,29.96,12,4,21,0.00
2014-2-24,14,6,-2,4,0,-7,82,75,65,30.17,30.08,8,2,15,0.00
2014-2-25,8,0,-8,5,-6,-13,92,73,62,30.16,30.08,7,3,17,0.00
2014-2-26,15,0,-14,9,-8,-20,79,68,57,30.16,29.47,18,7,29,0.00
2014-2-27,1,-8,-21,-10,-19,-29,66,58,45,30.07,29.69,11,1,18,0.00
2014-2-28,11,0,-22,7,-7,-29,86,73,56,30.04,29.84,4,0,11,0.00